This is the latest recevied weather packets stored in our database for station/object CE3RCJ-14. If no packets are shown the sender has not sent any weather packets the latest 10 day(s).
| Time | Temp. | Humidity | Pressure | Rain* | Wind** | Luminosity | Snow |
|---|---|---|---|---|---|---|---|
| 1777808582 | 12.22° C | 51% | 1018.8 hPa | - | - | - | - |
| 1777808282 | 12.22° C | 51% | 1018.7 hPa | - | - | - | - |
| 1777806497 | 12.22° C | 51% | 1018.4 hPa | - | - | - | - |
| 1777804982 | 12.78° C | 50% | 1018.2 hPa | - | - | - | - |
| 1777803482 | 12.78° C | 50% | 1018.3 hPa | - | - | - | - |
| 1777799882 | 13.33° C | 49% | 1017.7 hPa | - | - | - | - |
| 1777799582 | 13.33° C | 49% | 1017.5 hPa | - | - | - | - |
| 1777798983 | 13.33° C | 49% | 1017.5 hPa | - | - | - | - |
| 1777798682 | 13.33° C | 49% | 1017.6 hPa | - | - | - | - |
| 1777798097 | 13.33° C | 49% | 1017.7 hPa | - | - | - | - |
| 1777796298 | 13.33° C | 49% | 1018.2 hPa | - | - | - | - |
| 1777795082 | 13.33° C | 49% | 1018.7 hPa | - | - | - | - |
| 1777794798 | 13.33° C | 49% | 1018.8 hPa | - | - | - | - |
| 1777794482 | 13.33° C | 49% | 1018.8 hPa | - | - | - | - |
| 1777794182 | 13.33° C | 49% | 1018.9 hPa | - | - | - | - |
| 1777792682 | 13.89° C | 49% | 1019 hPa | - | - | - | - |
| 1777792382 | 13.89° C | 48% | 1019 hPa | - | - | - | - |
| 1777792098 | 13.89° C | 49% | 1018.8 hPa | - | - | - | - |
| 1777791182 | 14.44° C | 47% | 1018.1 hPa | - | - | - | - |
| 1777788199 | 13.89° C | 48% | 1017.7 hPa | - | - | - | - |
| 1777787284 | 13.89° C | 48% | 1017.8 hPa | - | - | - | - |
| 1777786382 | 13.89° C | 48% | 1018.2 hPa | - | - | - | - |
| 1777784600 | 14.44° C | 47% | 1018.5 hPa | - | - | - | - |
| 1777783998 | 14.44° C | 47% | 1018.7 hPa | - | - | - | - |
| 1777783389 | 14.44° C | 46% | 1018.6 hPa | - | - | - | - |
* Rain since midnight (hover to see other rain measurements)
** Current wind speed in m/s (hover to see current wind gust speed)